When you browse on this site, cookies collect data to enhance your experience and personalize the content and advertising you see.
Visit our Privacy Policy to learn more. By continuing to use the site, you agree to this use of cookies and data.

Previsão horária em Pecz

Hoje, 5 Agosto, Quarta-feira

Tempo Temperatura Precipitação Vento Pressão Humidade
00:00 +15°C° 0.7 mm 4 m/s 740 mmHg 94%
01:00 +16°C° 0.7 mm 3 m/s 740 mmHg 93%
02:00 +16°C° 0.8 mm 3 m/s 740 mmHg 93%
03:00 +15°C° 0.8 mm 4 m/s 740 mmHg 93%
04:00 +14°C° 0.8 mm 4 m/s 740 mmHg 93%
05:00 +15°C° 0.1 mm 4 m/s 740 mmHg 92%
06:00 +16°C° 0.1 mm 3 m/s 740 mmHg 92%
07:00 +16°C° 0.1 mm 3 m/s 740 mmHg 91%
08:00 +17°C° 0 mm 3 m/s 741 mmHg 88%
09:00 +18°C° 0 mm 3 m/s 741 mmHg 86%
10:00 +19°C° 0 mm 3 m/s 742 mmHg 83%
11:00 +20°C° 0 mm 4 m/s 742 mmHg 82%
12:00 +21°C° 0 mm 4 m/s 742 mmHg 81%
13:00 +22°C° 0 mm 4 m/s 742 mmHg 80%
14:00 +22°C° 0.3 mm 4 m/s 742 mmHg 80%
15:00 +22°C° 0.3 mm 5 m/s 741 mmHg 81%
16:00 +22°C° 0.3 mm 5 m/s 741 mmHg 82%
17:00 +22°C° 1.1 mm 5 m/s 741 mmHg 85%
18:00 +21°C° 1.1 mm 4 m/s 741 mmHg 88%
19:00 +20°C° 1.1 mm 4 m/s 741 mmHg 91%
20:00 +20°C° 0.7 mm 4 m/s 742 mmHg 92%
21:00 +20°C° 0.7 mm 3 m/s 742 mmHg 93%
22:00 +19°C° 0.7 mm 3 m/s 742 mmHg 95%
23:00 +19°C° 0.2 mm 3 m/s 742 mmHg 95%

Amanhã, 6 Agosto, Quinta-feira

Tempo Temperatura Precipitação Vento Pressão Humidade
00:00 +19°C° 0.2 mm 3 m/s 742 mmHg 95%
01:00 +19°C° 0.2 mm 3 m/s 742 mmHg 95%
02:00 +18°C° 0.1 mm 3 m/s 742 mmHg 96%
03:00 +18°C° 0.1 mm 3 m/s 742 mmHg 96%
04:00 +18°C° 0.1 mm 3 m/s 742 mmHg 96%
05:00 +18°C° 0 mm 3 m/s 743 mmHg 94%
06:00 +19°C° 0 mm 3 m/s 743 mmHg 93%
07:00 +19°C° 0 mm 3 m/s 743 mmHg 91%
08:00 +21°C° 0 mm 3 m/s 744 mmHg 84%
09:00 +24°C° 0 mm 3 m/s 744 mmHg 77%
10:00 +25°C° 0 mm 3 m/s 745 mmHg 70%
11:00 +26°C° 0 mm 3 m/s 744 mmHg 65%
12:00 +27°C° 0 mm 2 m/s 744 mmHg 61%
13:00 +28°C° 0 mm 2 m/s 744 mmHg 56%
14:00 +28°C° 0.1 mm 2 m/s 744 mmHg 56%
15:00 +28°C° 0.1 mm 3 m/s 744 mmHg 55%
16:00 +28°C° 0.1 mm 3 m/s 744 mmHg 55%
17:00 +27°C° 0 mm 2 m/s 744 mmHg 59%
18:00 +25°C° 0 mm 2 m/s 744 mmHg 64%
19:00 +24°C° 0 mm 2 m/s 744 mmHg 69%
20:00 +23°C° 0 mm 2 m/s 744 mmHg 70%
21:00 +21°C° 0 mm 2 m/s 744 mmHg 71%
22:00 +20°C° 0 mm 2 m/s 745 mmHg 71%
23:00 +20°C° 0 mm 2 m/s 745 mmHg 74%

Depois de amanhã, 7 Agosto, Sexta-feira

Tempo Temperatura Precipitação Vento Pressão Humidade
00:00 +20°C° 0 mm 2 m/s 745 mmHg 76%
01:00 +19°C° 0 mm 3 m/s 745 mmHg 78%
02:00 +19°C° 0 mm 2 m/s 745 mmHg 80%
03:00 +19°C° 0 mm 2 m/s 745 mmHg 81%
04:00 +18°C° 0 mm 2 m/s 745 mmHg 83%
05:00 +19°C° 0 mm 2 m/s 745 mmHg 80%
06:00 +20°C° 0 mm 2 m/s 746 mmHg 77%
07:00 +21°C° 0 mm 2 m/s 746 mmHg 74%
08:00 +24°C° 0 mm 2 m/s 746 mmHg 68%
09:00 +26°C° 0 mm 2 m/s 746 mmHg 62%
10:00 +28°C° 0 mm 3 m/s 746 mmHg 56%
11:00 +29°C° 0 mm 3 m/s 746 mmHg 52%
12:00 +30°C° 0 mm 3 m/s 746 mmHg 48%
13:00 +31°C° 0 mm 3 m/s 746 mmHg 44%
14:00 +31°C° 0 mm 3 m/s 745 mmHg 44%
15:00 +32°C° 0 mm 4 m/s 745 mmHg 44%
16:00 +32°C° 0 mm 4 m/s 745 mmHg 44%
17:00 +29°C° 0 mm 3 m/s 745 mmHg 50%
18:00 +27°C° 0 mm 3 m/s 745 mmHg 56%
19:00 +26°C° 0 mm 3 m/s 744 mmHg 62%
20:00 +25°C° 0 mm 3 m/s 745 mmHg 63%
21:00 +24°C° 0 mm 2 m/s 745 mmHg 65%
22:00 +23°C° 0 mm 2 m/s 745 mmHg 67%
23:00 +23°C° 0 mm 2 m/s 745 mmHg 69%

8 Agosto, Sábado

Tempo Temperatura Precipitação Vento Pressão Humidade
00:00 +21°C° 0 mm 2 m/s 744 mmHg 70%
01:00 +21°C° 0 mm 2 m/s 744 mmHg 72%
02:00 +20°C° 0 mm 2 m/s 744 mmHg 74%
03:00 +20°C° 0 mm 2 m/s 744 mmHg 76%
04:00 +20°C° 0 mm 2 m/s 744 mmHg 77%
05:00 +21°C° 0 mm 2 m/s 744 mmHg 75%
06:00 +23°C° 0 mm 2 m/s 744 mmHg 74%
07:00 +23°C° 0 mm 2 m/s 744 mmHg 72%
08:00 +25°C° 0 mm 2 m/s 745 mmHg 66%
09:00 +27°C° 0 mm 3 m/s 745 mmHg 60%
10:00 +29°C° 0 mm 3 m/s 745 mmHg 54%
11:00 +30°C° 0 mm 3 m/s 744 mmHg 51%
12:00 +31°C° 0 mm 3 m/s 744 mmHg 48%
13:00 +33°C° 0 mm 3 m/s 744 mmHg 45%
14:00 +33°C° 0 mm 3 m/s 743 mmHg 45%
15:00 +33°C° 0 mm 3 m/s 743 mmHg 45%
16:00 +32°C° 0 mm 2 m/s 742 mmHg 44%
17:00 +30°C° 0 mm 2 m/s 742 mmHg 51%
18:00 +28°C° 0 mm 2 m/s 742 mmHg 57%
19:00 +26°C° 0 mm 2 m/s 742 mmHg 63%
20:00 +25°C° 0.5 mm 2 m/s 742 mmHg 67%
21:00 +24°C° 0.5 mm 2 m/s 742 mmHg 71%
22:00 +23°C° 0.5 mm 2 m/s 742 mmHg 75%
23:00 +23°C° 0.1 mm 2 m/s 742 mmHg 76%

9 Agosto, Domingo

Tempo Temperatura Precipitação Vento Pressão Humidade
00:00 +22°C° 0.1 mm 1 m/s 742 mmHg 77%
01:00 +22°C° 0.1 mm 1 m/s 742 mmHg 78%
02:00 +22°C° 0 mm 1 m/s 742 mmHg 79%
03:00 +21°C° 0 mm 1 m/s 742 mmHg 80%
04:00 +21°C° 0 mm 1 m/s 742 mmHg 81%
05:00 +22°C° 0 mm 1 m/s 742 mmHg 78%
06:00 +24°C° 0 mm 1 m/s 742 mmHg 76%
07:00 +25°C° 0 mm 1 m/s 742 mmHg 73%
08:00 +26°C° 0.1 mm 1 m/s 742 mmHg 66%
09:00 +28°C° 0.1 mm 1 m/s 742 mmHg 59%
10:00 +30°C° 0.1 mm 2 m/s 742 mmHg 52%
11:00 +30°C° 0 mm 2 m/s 742 mmHg 48%
12:00 +31°C° 0 mm 1 m/s 742 mmHg 45%
13:00 +32°C° 0 mm 1 m/s 741 mmHg 41%
14:00 +32°C° 0 mm 1 m/s 741 mmHg 42%
15:00 +32°C° 0 mm 1 m/s 741 mmHg 43%
16:00 +31°C° 0 mm 1 m/s 740 mmHg 43%
17:00 +30°C° 0 mm 1 m/s 740 mmHg 48%
18:00 +28°C° 0 mm 1 m/s 740 mmHg 53%
19:00 +26°C° 0 mm 1 m/s 740 mmHg 58%
20:00 +26°C° 0 mm 1 m/s 740 mmHg 60%
21:00 +25°C° 0 mm 1 m/s 741 mmHg 61%
22:00 +24°C° 0 mm 1 m/s 741 mmHg 63%
23:00 +24°C° 0 mm 1 m/s 741 mmHg 65%

10 Agosto, Segunda-feira

Tempo Temperatura Precipitação Vento Pressão Humidade
00:00 +23°C° 0 mm 1 m/s 740 mmHg 66%
01:00 +23°C° 0 mm 1 m/s 740 mmHg 68%
02:00 +22°C° 0 mm 1 m/s 740 mmHg 70%
03:00 +22°C° 0 mm 1 m/s 740 mmHg 72%
04:00 +21°C° 0 mm 1 m/s 740 mmHg 75%
05:00 +22°C° 0 mm 1 m/s 740 mmHg 72%
06:00 +24°C° 0 mm 1 m/s 741 mmHg 69%
07:00 +25°C° 0 mm 1 m/s 741 mmHg 67%
08:00 +26°C° 0 mm 1 m/s 741 mmHg 62%
09:00 +28°C° 0 mm 1 m/s 741 mmHg 56%
10:00 +30°C° 0 mm 1 m/s 741 mmHg 51%
11:00 +31°C° 0 mm 1 m/s 741 mmHg 48%
12:00 +31°C° 0 mm 1 m/s 741 mmHg 45%
13:00 +32°C° 0 mm 2 m/s 740 mmHg 43%
14:00 +32°C° 0 mm 2 m/s 740 mmHg 44%
15:00 +31°C° 0 mm 1 m/s 740 mmHg 45%
16:00 +31°C° 0 mm 1 m/s 740 mmHg 47%
17:00 +29°C° 0 mm 1 m/s 740 mmHg 52%
18:00 +28°C° 0 mm 1 m/s 740 mmHg 58%
19:00 +26°C° 0 mm 1 m/s 740 mmHg 63%
20:00 +25°C° 0 mm 1 m/s 740 mmHg 65%
21:00 +24°C° 0 mm 1 m/s 740 mmHg 67%
22:00 +24°C° 0 mm 1 m/s 741 mmHg 69%
23:00 +23°C° 0.2 mm 1 m/s 741 mmHg 72%
Mostrar mais